Location: Devore Heights
(34.2372°N, 117.4156°W)
Time: 08:42:09
(UTC+00:00)

A-11 Canister half - Pass Details

Date: 17 September 2024
Orbit: 1515 x 1684 km, 47.2° (Epoch: 07 October)

Event Time Altitude Azimuth Distance (km) Brightness Sun altitude
Rises 03:56:53 0° 275° (W) 4,716 12.7 -25.6°
Reaches altitude 10° 04:00:18 10° 283° (WNW) 3,714 12.0 -26.2°
Maximum altitude 04:08:51 39° 350° (N) 2,152 9.9 -27.9°
Enters shadow 04:15:24 17° 50° (NE) 3,155 10.4 -29.1°
Drops below altitude 10° 04:17:20 10° 57° (ENE) 3,677 - -29.5°
Sets 04:20:42 0° 65° (ENE) 4,664 - -30.1°
